W9JOL Weather Reports


Display with metric or nautical units.
time (UTC)temp
F
wind
direction
speed
MPH
gust
MPH
rain 1hr
in
rain 24hr
in
rain mn
in
humidity
%
barometer
mb
20260504000213 66 112 1.0 4.0 0.00 0.00 0.00 52 1003.3
20260503235942 66 155 2.0 6.0 0.00 0.00 0.00 50 1003.3
20260503235439 66 274 1.0 6.0 0.00 0.00 0.00 49 1003.3
20260503234950 66 236 1.0 4.0 0.00 0.00 0.00 50 1003.3
20260503234440 66 0 1.0 4.0 0.00 0.00 0.00 49 1003.3
20260503233711 66 177 2.0 5.0 0.00 0.00 0.00 48 1003.4
20260503233211 66 0 2.0 6.0 0.00 0.00 0.00 49 1003.5
20260503232711 66 269 2.0 6.0 0.00 0.00 0.00 50 1003.5
20260503232211 66 311 2.0 6.0 0.00 0.00 0.00 51 1003.5
20260503231711 67 145 2.0 5.0 0.00 0.00 0.00 50 1003.5
20260503231210 67 248 2.0 5.0 0.00 0.00 0.00 50 1003.6
20260503230710 67 172 3.0 8.0 0.00 0.00 0.00 49 1003.6
20260503230206 67 174 3.0 8.0 0.00 0.00 0.00 49 1003.6
20260503225707 67 171 3.0 10.0 0.00 0.00 0.00 50 1003.6
20260503225205 67 353 3.0 10.0 0.00 0.00 0.00 48 1003.7
20260503224707 67 194 2.0 9.0 0.00 0.00 0.00 49 1003.7
20260503224207 67 350 2.0 7.0 0.00 0.00 0.00 49 1003.7
20260503223945 67 193 2.0 7.0 0.00 0.00 0.00 48 1003.7
20260503223207 67 180 2.0 7.0 0.00 0.00 0.00 49 1003.7
20260503222707 67 176 2.0 7.0 0.00 0.00 0.00 50 1003.8
20260503222436 67 157 3.0 7.0 0.00 0.00 0.00 50 1003.9
20260503221708 67 184 2.0 7.0 0.00 0.00 0.00 50 1003.9
20260503221207 67 191 2.0 7.0 0.00 0.00 0.00 48 1003.9
20260503220707 67 174 2.0 6.0 0.00 0.00 0.00 49 1003.9
20260503220203 67 347 2.0 6.0 0.00 0.00 0.00 50 1003.9
20260503215703 67 0 2.0 8.0 0.00 0.00 0.00 50 1003.9
20260503215200 66 196 3.0 8.0 0.00 0.00 0.00 51 1003.9
20260503214658 66 166 3.0 8.0 0.00 0.00 0.00 51 1003.9
20260503214158 66 343 3.0 8.0 0.00 0.00 0.00 50 1003.9
20260503213658 66 182 3.0 11.0 0.00 0.00 0.00 52 1004.1
20260503213158 66 264 4.0 11.0 0.00 0.00 0.00 51 1004.1
20260503212658 66 176 4.0 9.0 0.00 0.00 0.00 52 1004.2
20260503212158 66 192 3.0 9.0 0.00 0.00 0.00 50 1004.3
20260503211658 66 232 3.0 9.0 0.00 0.00 0.00 49 1004.2
20260503211155 65 185 3.0 9.0 0.00 0.00 0.00 52 1004.2
20260503210656 65 175 4.0 11.0 0.00 0.00 0.00 51 1004.4
20260503210153 65 168 5.0 11.0 0.00 0.00 0.00 52 1004.4
20260503205652 65 136 4.0 15.0 0.00 0.00 0.00 51 1004.5
20260503205153 65 228 4.0 15.0 0.00 0.00 0.00 52 1004.7
20260503204653 65 139 5.0 15.0 0.00 0.00 0.00 50 1004.6
20260503204152 65 152 4.0 13.0 0.00 0.00 0.00 50 1004.6
20260503203653 65 200 3.0 9.0 0.00 0.00 0.00 51 1004.7
20260503203424 65 177 3.0 10.0 0.00 0.00 0.00 54 1004.9
20260503202652 65 334 4.0 13.0 0.00 0.00 0.00 53 1005.0
20260503202153 64 193 4.0 13.0 0.00 0.00 0.00 55 1005.1
20260503201653 64 171 5.0 11.0 0.00 0.00 0.00 54 1005.2
20260503201154 63 274 6.0 12.0 0.00 0.00 0.00 55 1005.3
20260503200923 63 183 4.0 12.0 0.00 0.00 0.00 56 1005.5
20260503200416 62 216 4.0 11.0 0.00 0.00 0.00 57 1005.6
20260503195644 62 172 5.0 16.0 0.00 0.00 0.00 59 1005.7
20260503195416 62 81 6.0 16.0 0.00 0.00 0.00 58 1005.7
20260503194924 62 162 5.0 14.0 0.00 0.00 0.00 57 1005.8
20260503194418 63 188 5.0 15.0 0.00 0.00 0.00 58 1005.9
20260503193917 63 173 5.0 15.0 0.00 0.00 0.00 57 1006.1
20260503193415 63 168 4.0 15.0 0.00 0.00 0.00 58 1006.2
20260503192642 63 197 4.0 11.0 0.00 0.00 0.00 56 1006.1
20260503192142 63 164 5.0 13.0 0.00 0.00 0.00 53 1006.2
20260503191643 64 182 5.0 13.0 0.00 0.00 0.00 54 1006.1
20260503191415 64 96 5.0 13.0 0.00 0.00 0.00 55 1006.1
20260503190639 64 171 4.0 13.0 0.00 0.00 0.00 52 1006.2
20260503190139 64 181 6.0 13.0 0.00 0.00 0.00 54 1006.2
20260503185639 64 151 6.0 13.0 0.00 0.00 0.00 54 1006.2
20260503185141 64 252 5.0 13.0 0.00 0.00 0.00 52 1006.2
20260503184637 64 186 4.0 13.0 0.00 0.00 0.00 50 1006.2
20260503184137 63 161 5.0 11.0 0.00 0.00 0.00 52 1006.3
20260503183637 63 199 5.0 13.0 0.00 0.00 0.00 51 1006.1
20260503183137 63 165 6.0 14.0 0.00 0.00 0.00 53 1006.3
20260503182638 63 160 8.0 15.0 0.00 0.00 0.00 51 1006.3
20260503182138 63 107 6.0 15.0 0.00 0.00 0.00 50 1006.4
20260503181637 63 169 6.0 14.0 0.00 0.00 0.00 53 1006.4
20260503181137 62 177 6.0 14.0 0.00 0.00 0.00 54 1006.6
20260503180634 62 155 5.0 14.0 0.00 0.00 0.00 56 1006.6
20260503180136 62 167 5.0 11.0 0.00 0.00 0.00 56 1006.6
20260503175634 61 190 6.0 19.0 0.00 0.00 0.00 56 1006.8
20260503175136 60 196 6.0 19.0 0.00 0.00 0.00 57 1006.8
20260503174636 59 173 8.0 21.0 0.00 0.00 0.00 61 1006.9
20260503174136 59 196 8.0 21.0 0.00 0.00 0.00 62 1007.0
20260503173636 59 149 9.0 17.0 0.00 0.00 0.00 60 1007.1
20260503173136 58 191 8.0 14.0 0.00 0.00 0.00 62 1007.3
20260503172637 58 164 7.0 14.0 0.00 0.00 0.00 62 1007.2
20260503172137 58 193 6.0 14.0 0.00 0.00 0.00 62 1007.3
20260503171635 57 173 6.0 13.0 0.00 0.00 0.00 64 1007.4
20260503171135 57 192 8.0 14.0 0.00 0.00 0.00 63 1007.6
20260503170632 56 177 8.0 14.0 0.00 0.00 0.00 63 1007.8
20260503170133 56 185 7.0 13.0 0.00 0.00 0.00 64 1007.7
20260503160130 52 177 6.0 13.0 0.00 0.00 0.00 72 1008.5
20260503150911 55 162 5.0 16.0 0.00 0.00 0.00 67 1009.2
20260503150358 55 198 5.0 16.0 0.00 0.00 0.00 66 1009.3
20260503140123 57 175 3.0 9.0 0.00 0.00 0.00 60 1009.6
20260503131121 53 185 3.0 9.0 0.00 0.00 0.00 63 1010.0
20260503130848 52 182 3.0 6.0 0.00 0.00 0.00 62 1010.2
20260503130120 52 167 2.0 9.0 0.00 0.00 0.00 62 1010.2
20260503120115 49 148 3.0 8.0 0.00 0.00 0.00 62 1010.1
20260503110613 48 163 2.0 9.0 0.00 0.00 0.00 62 1009.9
20260503110113 48 170 2.0 6.0 0.00 0.00 0.00 63 1009.9
20260503100108 47 137 2.0 5.0 0.00 0.00 0.00 63 1010.2
20260503090104 47 189 2.0 7.0 0.00 0.00 0.00 62 1010.6
20260503081541 47 161 2.0 7.0 0.00 0.00 0.00 62 1011.0
20260503081040 47 153 2.0 7.0 0.00 0.00 0.00 61 1011.0
20260503080537 47 185 2.0 7.0 0.00 0.00 0.00 62 1011.0
20260503072537 47 217 1.0 9.0 0.00 0.00 0.00 61 1011.2
20260503072037 47 147 1.0 4.0 0.00 0.00 0.00 62 1011.2
20260503071538 47 0 1.0 6.0 0.00 0.00 0.00 62 1011.2
20260503071037 47 159 1.0 6.0 0.00 0.00 0.00 61 1011.2
20260503070532 47 159 1.0 5.0 0.00 0.00 0.00 61 1011.3
20260503055027 46 144 0.0 3.0 0.00 0.00 0.00 64 1011.8
20260503054528 46 0 0.0 3.0 0.00 0.00 0.00 65 1011.9
20260503054028 46 197 0.0 3.0 0.00 0.00 0.00 65 1011.9
20260503053759 46 156 1.0 3.0 0.00 0.00 0.00 65 1011.9
20260503053028 46 0 0.0 3.0 0.00 0.00 0.00 65 1011.9
20260503052529 46 178 0.0 2.0 0.00 0.00 0.00 65 1012.0
20260503052028 46 185 0.0 3.0 0.00 0.00 0.00 66 1012.0
20260503051529 46 0 1.0 4.0 0.00 0.00 0.00 65 1012.0
20260503051027 46 0 1.0 5.0 0.00 0.00 0.00 64 1012.0
20260503050528 46 0 1.0 6.0 0.00 0.00 0.00 65 1012.1
20260503050027 46 122 0.0 6.0 0.00 0.00 0.00 64 1012.1
20260503045528 46 0 1.0 5.0 0.00 0.00 0.00 64 1012.1
20260503045026 46 214 1.0 5.0 0.00 0.00 0.00 65 1012.1
20260503044526 46 0 1.0 5.0 0.00 0.00 0.00 65 1012.2
20260503044024 46 0 1.0 5.0 0.00 0.00 0.00 65 1012.2
20260503043524 46 149 1.0 3.0 0.00 0.00 0.00 65 1012.2
20260503043025 46 0 1.0 3.0 0.00 0.00 0.00 66 1012.2
20260503042525 45 0 0.0 3.0 0.00 0.00 0.00 66 1012.3
20260503042232 45 0 0.0 2.0 0.00 0.00 0.00 67 1012.3
20260503041501 46 0 0.0 2.0 0.00 0.00 0.00 67 1012.3
20260503041001 46 0 0.0 1.0 0.00 0.00 0.00 67 1012.3
20260503040501 46 187 0.0 2.0 0.00 0.00 0.00 67 1012.4
20260503040001 46 0 0.0 2.0 0.00 0.00 0.00 67 1012.4
20260503035501 46 158 0.0 4.0 0.00 0.00 0.00 67 1012.4
20260503035003 46 328 0.0 4.0 0.00 0.00 0.00 66 1012.5
20260503034502 46 0 0.0 3.0 0.00 0.00 0.00 67 1012.5
20260503034229 46 0 0.0 3.0 0.00 0.00 0.00 67 1012.5
20260503033730 46 0 0.0 2.0 0.00 0.00 0.00 67 1012.5
20260503033228 46 140 0.0 4.0 0.00 0.00 0.00 66 1012.6
20260503032458 46 201 0.0 4.0 0.00 0.00 0.00 65 1012.6
20260503031959 46 0 1.0 3.0 0.00 0.00 0.00 64 1012.6
20260503031735 46 0 1.0 5.0 0.00 0.00 0.00 63 1012.6
20260503031001 46 0 1.0 5.0 0.00 0.00 0.00 63 1012.7
20260503030457 46 135 0.0 4.0 0.00 0.00 0.00 64 1012.7
20260503025958 46 143 0.0 2.0 0.00 0.00 0.00 65 1012.8
20260503025729 46 132 0.0 4.0 0.00 0.00 0.00 64 1012.8
20260503025226 46 0 0.0 4.0 0.00 0.00 0.00 63 1012.8
20260503024729 46 0 0.0 2.0 0.00 0.00 0.00 63 1012.8
20260503024223 46 0 0.0 2.0 0.00 0.00 0.00 63 1012.8
20260503023453 46 172 0.0 2.0 0.00 0.00 0.00 62 1012.8
20260503022953 46 148 0.0 2.0 0.00 0.00 0.00 61 1012.8
20260503022450 47 0 0.0 3.0 0.00 0.00 0.00 61 1012.8
20260503021951 47 0 0.0 3.0 0.00 0.00 0.00 60 1012.8
20260503021452 47 129 0.0 2.0 0.00 0.00 0.00 59 1012.8
20260503020951 47 0 0.0 2.0 0.00 0.00 0.00 60 1012.8
20260503020452 47 134 0.0 2.0 0.00 0.00 0.00 59 1012.8
20260503015953 48 133 0.0 2.0 0.00 0.00 0.00 58 1012.7
20260503015451 48 0 0.0 2.0 0.00 0.00 0.00 58 1012.7
20260503014950 49 66 0.0 2.0 0.00 0.00 0.00 57 1012.7
20260503014824 49 119 1.0 3.0 0.00 0.00 0.00 56 1012.6
20260503013946 49 180 1.0 3.0 0.00 0.00 0.00 56 1012.6
20260503013446 49 131 0.0 2.0 0.00 0.00 0.00 55 1012.5
20260503012946 50 0 1.0 2.0 0.00 0.00 0.00 54 1012.5
20260503012447 50 176 1.0 2.0 0.00 0.00 0.00 54 1012.5
20260503011946 50 0 1.0 2.0 0.00 0.00 0.00 54 1012.5
20260503011446 50 154 0.0 2.0 0.00 0.00 0.00 53 1012.5
20260503010946 51 0 0.0 2.0 0.00 0.00 0.00 55 1012.5
20260503010447 51 177 0.0 6.0 0.00 0.00 0.00 53 1012.5
20260503010218 52 0 0.0 6.0 0.00 0.00 0.00 52 1012.5
20260503005446 52 128 1.0 3.0 0.00 0.00 0.00 51 1012.5
20260503004948 52 0 1.0 3.0 0.00 0.00 0.00 50 1012.5
20260503004445 53 156 1.0 3.0 0.00 0.00 0.00 49 1012.5
20260503003945 53 183 1.0 4.0 0.00 0.00 0.00 48 1012.5
20260503003444 53 202 1.0 4.0 0.00 0.00 0.00 48 1012.5
20260503002944 54 156 1.0 5.0 0.00 0.00 0.00 47 1012.6
20260503002444 54 155 2.0 6.0 0.00 0.00 0.00 46 1012.6
20260503002215 54 192 2.0 6.0 0.00 0.00 0.00 45 1012.6
20260503001445 54 186 1.0 4.0 0.00 0.00 0.00 46 1012.7